Temperature
17 17 17 17 17 17 17 17 17 18 18 18 18 18 18 18 17 17 17 17 17 16 16 16 16 16 16 16 16 16 16 16 16 16 16 16 15 15 15 15 15 15 15
17 17 17 17 17 17 17 17 17 17 17 17 17 17 17 17 17 17 17 17 16 16 16 16 16 16 16 16 16 15 16 15 15 15 15 15 15 15 15 15 15 15 15
17 17 17 17 16 16 17 17 17 17 17 17 17 17 17 17 17 17 17 16 16 16 16 16 16 16 16 15 15 16 15 15 15 15 15 15 15 15 15 15 15 15 15
17 17 17 16 16 16 16 17 17 17 17 17 17 17 17 17 17 17 16 16 16 16 16 15 15 15 15 15 15 15 15 15 15 14 14 15 15 15 15 15 15 15 15
16 16 16 16 16 16 16 16 16 17 17 17 17 17 17 17 17 16 16 16 16 16 15 15 15 15 15 16 16 15 15 15 14 14 14 15 15 15 15 15 15 15 14
16 16 16 16 16 16 16 16 16 16 16 16 16 16 16 16 16 16 16 16 16 16 15 15 15 15 16 16 16 15 15 14 14 14 14 14 15 15 15 15 15 15 14
16 16 16 16 16 16 16 16 16 16 16 16 16 16 16 16 16 16 16 16 16 16 15 15 15 15 16 16 15 15 15 14 14 14 14 14 15 15 15 15 15 15 14
15 16 16 16 16 16 16 16 16 16 16 16 16 16 16 16 16 16 16 16 16 16 15 15 15 16 16 16 15 15 15 14 14 14 14 14 15 15 15 15 15 14 14
15 15 15 15 16 16 16 16 16 16 16 16 16 16 16 16 16 16 16 15 15 15 15 15 15 16 16 15 15 15 15 14 14 14 14 14 15 15 15 15 15 14 14
15 15 15 15 15 15 15 16 16 16 16 16 16 16 16 15 15 15 15 15 15 15 15 15 15 15 15 15 15 15 15 14 14 14 14 14 15 15 15 15 14 14 14
14 15 15 15 15 15 15 15 15 16 16 16 16 16 16 15 15 15 15 15 15 15 15 15 15 15 15 15 15 15 15 15 14 14 14 14 15 15 15 15 15 14 14
14 14 14 15 15 15 15 15 15 15 15 16 15 15 15 15 15 15 15 15 15 15 15 15 15 15 15 15 15 15 15 15 14 14 14 14 15 15 15 15 15 15 14
13 14 14 14 15 15 15 15 15 15 15 15 15 15 15 15 15 15 15 15 15 15 15 15 15 15 15 15 15 15 15 15 14 14 14 14 15 15 15 14 14 14 14
13 13 14 14 14 14 14 14 15 15 15 15 15 15 15 15 15 15 15 15 15 15 15 15 15 15 15 15 15 15 15 14 14 14 14 14 15 15 15 14 14 14 14
12 12 13 13 14 14 14 14 14 14 14 15 15 15 15 15 15 15 15 15 15 15 15 15 15 15 15 14 14 14 14 14 14 14 14 14 15 15 15 14 14 14 14
11 11 12 12 13 13 14 14 14 14 14 14 14 14 14 14 14 14 14 14 15 15 15 15 15 14 14 14 14 14 14 14 14 14 14 14 14 15 15 14 14 14 14
11 11 11 12 12 12 13 13 13 13 14 14 14 14 14 14 14 14 14 14 14 15 14 14 14 14 14 14 14 14 14 14 14 14 14 14 14 15 15 14 14 14 14
10 11 11 11 11 12 12 12 13 13 13 13 13 14 14 14 14 14 14 14 14 14 14 14 14 14 14 14 14 14 14 14 14 14 14 14 14 14 14 14 14 14 14
10 10 10 11 11 11 11 12 12 12 13 13 13 13 13 13 13 13 14 14 14 14 14 14 14 14 14 14 14 14 14 14 14 14 14 14 14 14 14 14 14 14 14
9 9 10 10 10 11 11 11 11 12 12 12 12 13 13 13 13 13 13 13 13 13 13 14 14 13 13 13 13 13 13 13 14 14 14 14 14 14 14 14 14 14 14
9 9 9 9 10 10 10 10 11 11 11 12 12 12 12 12 13 13 13 13 13 13 13 13 13 13 13 13 13 13 13 13 13 13 14 14 14 14 14 14 14 14 14
8 8 8 9 9 9 9 9 10 10 10 11 11 11 12 12 12 12 12 13 13 13 13 13 13 13 13 12 12 12 12 12 13 13 13 13 14 14 14 14 14 14 14
7 8 8 8 8 9 9 9 9 9 10 10 10 11 11 12 12 12 12 12 12 12 12 13 13 12 12 12 12 12 12 12 12 13 13 13 13 13 13 13 13 14 14
7 7 7 8 8 8 8 8 8 8 9 9 9 10 11 11 11 11 11 12 12 12 12 12 12 12 12 12 12 12 12 12 12 12 13 13 13 13 13 13 13 13 13
6 7 7 7 7 8 7 8 8 8 8 8 9 9 10 10 11 11 11 11 11 11 11 12 12 12 12 12 12 11 11 11 12 12 12 12 12 13 13 13 13 13 13
6 6 6 7 7 7 7 7 7 7 8 8 8 9 9 10 10 10 10 10 11 11 11 11 11 11 11 11 11 11 11 11 11 11 11 12 12 12 12 12 12 12 12
Wind_Speed
4 6 11 9 9 10 11 13 13 13 13 12 12 12 11 11 11 11 11 11 11 11 11 11 11 11 11 12 13 13 14 15 15 15 15 14 14 13 13 13 15 14 15
3 6 12 10 9 10 10 12 13 13 13 12 12 11 11 11 11 10 11 10 10 10 10 11 11 11 11 12 13 13 13 13 13 14 15 14 13 13 15 16 15 13 14
4 6 11 10 9 10 10 10 12 13 13 12 12 11 11 10 10 10 10 10 10 10 10 10 10 12 12 12 12 12 11 10 10 10 12 13 12 13 14 14 14 13 13
5 6 8 9 9 9 9 10 11 12 13 13 12 12 11 10 10 10 10 10 10 10 11 11 11 12 12 12 11 10 9 7 4 4 5 12 11 11 12 12 12 12 12
6 6 8 10 8 9 9 9 11 11 12 12 12 12 11 11 10 10 10 10 9 10 11 11 12 12 12 11 10 9 6 3 2 2 9 14 12 10 11 11 11 12 12
7 7 7 8 8 8 8 9 10 11 12 12 12 12 12 11 11 10 10 10 10 11 12 12 12 12 12 10 9 8 5 3 3 2 10 14 11 10 10 10 10 10 10
7 7 5 6 7 8 8 9 10 10 11 11 12 13 12 12 12 11 11 12 12 12 12 12 12 12 11 10 8 7 4 4 4 4 11 13 11 9 9 9 9 9 8
6 6 4 2 5 7 8 9 10 10 10 11 12 13 13 13 12 12 13 13 13 13 12 12 13 12 11 10 8 6 4 5 3 5 11 13 10 9 8 8 7 7 7
6 5 4 2 1 4 8 9 10 11 11 11 12 13 13 13 13 13 13 14 14 14 14 13 13 12 11 10 8 7 6 6 6 2 10 11 9 8 7 6 6 5 5
6 5 4 4 3 1 4 8 10 11 12 12 12 13 13 14 14 14 14 15 15 15 15 14 14 13 12 10 9 8 7 7 7 2 9 11 10 7 7 6 5 4 4
6 5 4 4 3 3 4 7 9 11 12 13 12 14 13 13 13 14 15 16 17 16 16 16 15 14 12 11 10 9 8 8 8 4 9 12 10 8 7 6 5 4 3
6 6 4 4 4 4 4 4 6 8 10 11 11 12 13 13 13 14 17 19 19 18 17 16 15 14 12 10 10 10 9 11 7 6 10 13 10 8 7 6 6 5 4
5 5 5 4 5 4 3 4 4 5 7 10 12 13 13 12 11 11 11 14 15 15 14 14 14 12 12 11 11 11 12 11 7 7 13 14 11 9 9 8 7 6 5
6 6 5 5 4 5 4 3 4 3 4 5 9 11 9 5 5 7 7 10 12 12 11 11 10 12 13 13 13 12 12 9 7 7 13 16 13 10 10 9 8 8 7
6 6 6 5 5 5 4 4 4 4 4 6 8 10 10 5 6 5 7 9 11 12 11 9 9 10 10 10 11 11 10 10 9 9 12 17 15 12 11 11 10 9 9
6 6 6 6 6 5 4 4 4 4 5 6 7 9 11 8 6 6 6 7 9 12 12 10 10 8 7 7 7 8 8 10 11 10 12 16 17 15 13 12 12 11 11
6 6 6 6 6 6 6 6 5 5 6 5 6 9 10 10 8 6 6 7 8 12 12 10 9 8 7 7 7 7 6 7 8 9 11 14 15 16 16 15 14 13 12
6 7 7 7 6 6 6 5 5 5 5 5 6 8 9 10 10 7 6 7 8 10 8 7 7 7 7 6 6 6 5 5 6 7 9 12 14 14 16 17 16 15 14
6 6 6 6 6 7 7 5 5 5 5 5 5 6 8 10 10 7 6 6 8 6 6 8 7 6 6 6 6 6 5 5 6 6 6 10 13 14 15 17 19 18 16
5 6 7 6 6 6 6 5 4 5 5 4 4 5 7 8 9 7 5 6 6 6 6 7 7 6 6 6 6 6 5 6 5 6 7 7 11 14 15 15 16 17 19
6 7 7 6 6 4 4 3 4 4 4 4 4 5 7 7 7 6 6 6 7 7 8 8 6 7 6 4 3 3 4 6 7 6 6 6 7 11 14 14 14 14 14
7 7 7 6 5 4 3 3 3 4 4 4 4 5 6 7 7 6 6 6 7 7 8 8 6 5 5 6 4 3 3 5 7 9 7 7 8 7 9 13 14 15 14
8 7 8 7 6 5 4 3 4 3 3 4 4 5 5 6 6 6 6 6 7 7 8 9 8 8 7 7 6 5 4 5 4 5 8 8 8 7 7 8 12 15 15
9 7 7 7 6 4 3 3 4 4 4 5 4 4 5 5 5 6 6 7 7 7 7 8 9 8 8 7 6 6 5 3 3 3 4 7 9 9 9 8 9 12 15
9 8 7 7 6 5 4 3 4 5 5 4 4 4 4 4 5 5 6 6 7 7 7 7 7 8 8 8 7 5 6 5 5 3 4 4 5 7 7 8 7 8 13
9 8 7 7 6 6 4 4 4 5 5 5 5 4 4 3 3 4 5 4 5 5 7 7 7 8 8 9 9 7 6 5 6 6 7 6 6 6 7 7 8 8 11
Wind_Direction
47 119 137 142 146 147 150 152 150 148 147 148 146 143 140 138 135 134 132 131 129 127 123 120 118 113 107 102 99 95 93 92 92 90 85 82 81 79 77 83 83 76 77
10 121 138 145 148 150 151 156 155 153 153 154 153 151 151 149 146 143 142 142 140 136 131 127 124 119 114 109 104 102 101 103 105 104 95 82 78 77 75 75 81 82 79
29 105 138 142 148 150 153 155 159 159 159 160 160 160 159 158 156 154 152 150 149 144 138 133 129 122 116 111 109 108 110 117 124 128 113 100 88 83 82 81 83 84 83
39 89 135 139 149 153 155 159 160 164 165 167 168 167 167 166 165 164 162 156 153 148 141 135 130 125 120 116 115 116 121 132 148 165 129 107 96 91 89 87 87 86 84
40 71 127 143 153 156 160 164 166 170 173 174 175 174 175 175 173 171 168 162 157 150 144 139 135 130 126 125 125 128 138 163 219 203 99 99 97 98 94 90 88 86 84
31 48 113 146 157 163 168 173 176 179 180 182 182 181 183 183 181 177 170 163 157 152 149 146 142 136 133 134 137 143 161 220 281 135 110 109 108 106 100 97 92 90 86
25 33 95 148 166 173 177 179 181 187 189 190 191 191 191 191 188 181 171 166 161 158 157 154 150 145 143 145 149 157 185 251 272 93 100 107 115 113 108 103 97 94 90
24 23 44 133 178 188 189 188 189 192 196 198 198 199 198 198 195 185 177 173 169 167 167 163 159 156 155 156 161 172 207 260 285 124 111 114 123 123 116 111 105 99 95
19 21 16 33 154 206 202 199 201 200 202 204 204 204 202 200 197 190 183 180 177 174 173 169 168 166 166 166 169 184 219 257 295 148 126 124 134 135 131 126 121 114 106
11 13 9 5 5 295 233 216 210 209 208 209 209 207 205 205 201 194 190 186 183 181 178 174 173 173 174 174 177 192 220 255 271 176 128 137 148 151 150 148 141 130 120
5 3 360 355 350 326 269 234 218 216 214 212 212 209 205 206 204 198 196 191 187 185 184 180 177 176 175 177 183 195 218 245 250 173 137 149 159 166 167 168 165 156 144
347 347 350 348 335 323 299 269 231 222 216 215 215 206 204 206 205 201 198 192 190 188 187 185 182 178 177 180 188 197 220 239 233 163 148 157 168 178 182 183 185 183 182
329 328 332 329 325 316 304 292 259 237 222 217 219 209 204 205 203 196 182 184 186 186 186 187 184 185 193 191 185 199 221 234 217 177 159 165 176 188 192 195 200 202 207
320 320 322 319 311 301 288 282 275 252 233 223 223 218 206 199 193 182 177 179 183 187 189 186 189 199 205 204 190 196 215 225 214 180 168 173 181 194 201 205 209 213 216
310 311 310 303 297 294 284 270 266 254 240 233 228 223 209 198 196 189 184 183 186 189 189 188 193 202 203 208 202 201 207 207 211 194 173 181 187 196 206 210 215 218 221
305 303 302 299 292 286 277 265 259 254 251 242 231 225 217 206 196 193 192 189 191 192 192 192 194 200 202 205 208 205 208 205 209 197 177 187 193 200 208 214 219 222 224
307 304 298 293 289 285 278 273 272 264 254 240 237 229 221 213 203 195 197 196 195 194 193 194 197 198 198 202 207 210 212 213 212 201 183 184 194 204 211 216 219 223 224
306 304 298 299 294 284 274 268 273 272 260 244 240 236 227 221 213 198 198 200 197 193 192 195 196 194 195 196 205 214 213 214 219 213 197 187 190 199 211 217 220 222 224
303 303 298 289 288 290 286 272 266 271 268 254 246 239 234 226 220 205 200 200 197 194 197 198 200 193 193 196 205 214 217 213 215 216 208 198 196 197 199 212 219 221 223
314 309 302 294 282 281 281 281 274 269 267 264 248 244 242 232 223 212 203 201 199 197 198 198 197 195 194 194 206 215 220 223 213 212 213 208 203 200 200 203 211 220 223
321 313 301 296 288 284 282 279 274 271 266 266 254 249 245 237 226 216 213 205 203 203 202 198 195 196 199 183 180 223 245 239 232 221 212 208 205 203 203 204 204 208 216
323 319 310 298 289 282 278 275 270 270 268 261 256 252 248 236 225 221 215 211 207 205 204 202 197 196 198 184 170 174 229 244 242 231 218 213 211 202 202 205 206 207 209
326 319 315 305 291 279 278 287 295 290 285 277 270 259 247 242 230 218 216 215 212 209 209 208 203 198 202 199 186 179 191 218 226 226 221 215 209 207 208 204 209 210 209
333 328 322 315 306 297 287 280 279 277 270 267 266 260 252 245 237 222 217 215 215 215 215 213 210 207 201 203 205 211 212 197 198 232 233 220 213 212 211 210 210 212 211
342 338 330 326 320 311 298 279 273 276 277 280 278 269 260 245 239 235 227 215 212 214 217 217 213 210 210 207 202 203 221 237 228 219 238 230 225 222 215 212 209 210 213
347 345 341 336 330 329 322 310 290 283 284 289 285 271 272 264 247 246 242 227 219 213 213 217 216 217 219 217 212 208 201 203 211 215 228 225 227 227 222 219 214 213 213
Height
1509 1507 1508 1509 1511 1512 1514 1516 1518 1520 1522 1523 1524 1526 1527 1528 1529 1530 1531 1532 1533 1534 1534 1535 1536 1536 1537 1537 1538 1539 1540 1540 1540 1541 1541 1541 1542 1542 1542 1542 1542 1542 1542
1508 1508 1508 1510 1511 1513 1515 1517 1519 1521 1522 1524 1525 1527 1528 1529 1530 1531 1532 1533 1534 1535 1536 1536 1537 1538 1538 1539 1540 1540 1541 1542 1542 1543 1543 1543 1543 1544 1544 1544 1544 1544 1544
1508 1508 1509 1510 1511 1513 1515 1517 1519 1521 1523 1524 1526 1527 1529 1530 1531 1532 1533 1534 1535 1536 1537 1537 1538 1539 1540 1540 1541 1542 1543 1543 1544 1544 1545 1545 1545 1545 1545 1545 1545 1545 1545
1508 1508 1509 1510 1512 1514 1515 1517 1519 1521 1523 1525 1526 1528 1529 1530 1532 1533 1534 1535 1536 1537 1537 1538 1539 1540 1541 1541 1542 1543 1544 1545 1546 1546 1546 1546 1546 1546 1546 1546 1546 1547 1547
1508 1508 1509 1510 1512 1514 1516 1518 1520 1521 1523 1525 1526 1528 1529 1530 1532 1533 1534 1535 1536 1537 1538 1539 1540 1541 1542 1542 1543 1544 1545 1546 1547 1547 1548 1547 1547 1547 1547 1547 1548 1548 1548
1508 1508 1509 1510 1512 1513 1515 1517 1519 1521 1523 1524 1526 1527 1529 1530 1532 1533 1534 1535 1536 1537 1538 1539 1540 1541 1542 1543 1544 1545 1546 1547 1548 1549 1549 1548 1548 1548 1548 1548 1549 1549 1549
1508 1508 1509 1510 1511 1513 1515 1516 1518 1520 1522 1524 1525 1527 1528 1530 1531 1532 1534 1535 1536 1537 1538 1540 1541 1542 1543 1544 1545 1546 1547 1548 1548 1549 1549 1549 1549 1549 1549 1549 1549 1550 1550
1507 1508 1508 1509 1510 1512 1514 1515 1517 1519 1521 1522 1524 1526 1527 1529 1530 1532 1533 1534 1535 1537 1538 1539 1541 1542 1543 1544 1545 1546 1547 1548 1549 1550 1550 1550 1550 1550 1550 1550 1550 1550 1550
1507 1507 1508 1509 1510 1511 1512 1514 1516 1517 1519 1521 1522 1524 1526 1528 1529 1530 1532 1533 1535 1536 1538 1539 1540 1541 1543 1544 1545 1546 1547 1548 1549 1550 1550 1550 1550 1551 1551 1551 1551 1551 1551
1506 1507 1507 1508 1508 1509 1511 1512 1514 1515 1517 1519 1521 1522 1524 1526 1527 1529 1530 1532 1533 1535 1537 1538 1539 1541 1542 1543 1545 1546 1547 1548 1549 1550 1550 1550 1550 1551 1551 1551 1551 1551 1551
1505 1505 1506 1506 1507 1508 1509 1510 1512 1513 1515 1517 1518 1520 1522 1523 1525 1527 1528 1530 1532 1533 1535 1537 1538 1540 1541 1542 1544 1545 1546 1547 1549 1549 1549 1550 1550 1550 1551 1551 1551 1551 1551
1503 1504 1504 1505 1505 1506 1507 1508 1509 1511 1512 1514 1515 1517 1519 1521 1522 1524 1526 1528 1530 1531 1533 1535 1537 1538 1539 1541 1542 1543 1545 1546 1548 1548 1548 1549 1550 1550 1550 1550 1550 1551 1551
1501 1501 1502 1502 1503 1504 1504 1505 1506 1508 1509 1511 1513 1514 1516 1518 1520 1522 1523 1525 1527 1529 1531 1532 1534 1536 1537 1539 1540 1542 1543 1545 1546 1547 1547 1548 1548 1549 1549 1549 1550 1550 1550
1499 1499 1499 1499 1499 1500 1501 1502 1503 1504 1506 1508 1509 1511 1513 1515 1516 1518 1519 1521 1523 1525 1527 1529 1531 1533 1535 1537 1538 1540 1541 1543 1544 1545 1545 1546 1547 1547 1548 1548 1549 1549 1549
1496 1496 1496 1496 1496 1497 1497 1498 1499 1501 1502 1504 1506 1508 1509 1511 1513 1514 1516 1518 1520 1522 1524 1526 1528 1530 1532 1534 1536 1537 1539 1540 1542 1543 1543 1544 1545 1546 1546 1546 1547 1547 1548
1493 1493 1492 1492 1492 1493 1493 1494 1495 1497 1498 1500 1501 1503 1505 1507 1509 1510 1512 1514 1516 1518 1520 1522 1525 1527 1529 1531 1533 1535 1536 1538 1539 1540 1541 1542 1542 1543 1544 1544 1545 1545 1546
1491 1490 1489 1488 1488 1489 1489 1490 1491 1492 1494 1495 1497 1499 1500 1503 1505 1506 1508 1510 1512 1514 1517 1519 1521 1523 1526 1527 1529 1531 1533 1535 1536 1537 1538 1538 1539 1540 1541 1542 1542 1543 1543
1487 1486 1485 1485 1484 1484 1485 1485 1486 1487 1489 1490 1492 1494 1496 1498 1500 1502 1504 1506 1508 1510 1512 1514 1517 1519 1521 1523 1525 1527 1529 1531 1533 1534 1535 1535 1536 1537 1538 1539 1539 1540 1540
1484 1483 1482 1481 1480 1480 1480 1481 1481 1482 1484 1485 1487 1488 1491 1493 1495 1497 1499 1501 1503 1505 1507 1510 1512 1514 1516 1518 1520 1522 1525 1526 1528 1529 1531 1531 1532 1533 1534 1535 1536 1536 1537
1481 1479 1478 1477 1476 1476 1476 1476 1476 1477 1478 1480 1482 1483 1485 1488 1490 1492 1494 1496 1498 1500 1502 1505 1507 1509 1511 1514 1516 1518 1520 1521 1523 1524 1525 1527 1527 1528 1529 1530 1531 1532 1533
1477 1476 1474 1473 1472 1472 1471 1471 1471 1472 1473 1475 1476 1478 1480 1482 1484 1486 1488 1490 1493 1495 1497 1500 1502 1504 1506 1509 1511 1512 1514 1516 1517 1518 1520 1521 1522 1523 1524 1526 1527 1528 1528
1474 1472 1470 1469 1468 1468 1467 1467 1467 1468 1469 1470 1471 1472 1474 1476 1478 1480 1483 1485 1487 1489 1492 1494 1497 1499 1500 1503 1505 1507 1508 1510 1510 1512 1514 1515 1516 1518 1519 1520 1521 1522 1523
1471 1469 1467 1465 1464 1464 1464 1464 1464 1464 1464 1464 1465 1466 1468 1470 1472 1474 1476 1479 1481 1483 1485 1488 1491 1493 1495 1497 1499 1502 1503 1503 1504 1505 1506 1508 1510 1511 1513 1514 1515 1517 1517
1468 1466 1464 1462 1461 1460 1460 1460 1460 1459 1459 1459 1460 1462 1463 1464 1466 1468 1470 1472 1474 1477 1479 1482 1484 1487 1489 1491 1494 1495 1497 1498 1500 1499 1500 1501 1503 1505 1506 1507 1509 1510 1511
1466 1463 1461 1459 1458 1457 1457 1457 1456 1456 1456 1456 1457 1457 1458 1459 1460 1462 1464 1466 1468 1471 1473 1476 1478 1480 1482 1484 1486 1489 1490 1492 1494 1495 1494 1495 1496 1498 1499 1501 1502 1503 1505
1464 1461 1459 1457 1455 1454 1454 1453 1453 1453 1452 1452 1452 1452 1453 1454 1455 1457 1459 1461 1463 1465 1467 1470 1472 1474 1476 1478 1480 1482 1483 1484 1486 1488 1489 1489 1489 1490 1492 1494 1495 1496 1497